Weather History for KTYS - February, 2013

Change the Weather History Date:

Wednesday, February 20, 2013

  Actual Average Record
Temperature  
Mean Temperature 33 °F 44 °F  
Max Temperature 41 °F 54 °F 75 °F (1986)
Min Temperature 24 °F 34 °F 3 °F (2015)
Degree Days  
Heating Degree Days 32 21  
Month to date heating degree days 480 473  
Since 1 July heating degree days 2528 2735  
Cooling Degree Days 0 0  
Month to date cooling degree days 0 0  
Year to date cooling degree days 2 0  
Moisture  
Dew Point 14 °F    
Average Humidity 49    
Maximum Humidity 68    
Minimum Humidity 30    
Precipitation  
Precipitation 0.00 in 0.15 in 1.45 in (1947)
Month to date precipitation 1.13 3.04  
Year to date precipitation 13.80 7.36  
Snow  
Snow 0.00 in 0.10 in - ()
Month to date snowfall 1.2 1.3  
Since 1 July snowfall 2.6 4.8  
Snow Depth 0.00 in    
Sea Level Pressure  
Sea Level Pressure 30.22 in    
Wind  
Wind Speed 5 mph (WSW)    
Max Wind Speed 12 mph    
Max Gust Speed 15 mph    
Visibility 10 miles    
Events      
T = Trace of Precipitation, MM = Missing Value Source: NWS Daily Summary

Daily Weather History Graph

Daily Weather History Graph

Search for Another Location

Airport or City:

Trip Planner

Search our weather history database for the weather conditions in past years. The results will help you decide how hot, cold, wet, or windy it might be!

Date:

Astronomy

Feb. 20, 2013 Rise Set
Actual Time 7:16 AM EST 6:22 PM EST
Civil Twilight 6:51 AM EST 6:48 PM EST
Nautical Twilight 6:21 AM EST 7:18 PM EST
Astronomical Twilight 5:51 AM EST 7:48 PM EST
Moon 1:49 PM EST (2/20) 3:30 AM EST (2/20)
Length of Visible Light 11h 57m
Length of Day
11h 05m
Waxing Gibbous, 76% of the Moon is Illuminated
Feb 20
Waxing Gibbous
Feb 25
Full
Mar 4
Last Quarter
Mar 11
New
Mar 19
First Quarter

Hourly Weather History & Observations

Time (EST) Temp. Windchill Dew Point Humidity Pressure Visibility Wind Dir Wind Speed Gust Speed Precip Events Conditions
12:53 AM 32.0 °F 24.8 °F 15.1 °F 50% 30.20 in 10.0 mi SW 8.1 mph - N/A   Clear
1:53 AM 30.0 °F 21.7 °F 14.0 °F 51% 30.20 in 10.0 mi South 9.2 mph - N/A   Clear
2:53 AM 30.9 °F 26.2 °F 14.0 °F 50% 30.19 in 10.0 mi South 4.6 mph - N/A   Clear
3:53 AM 30.0 °F 25.2 °F 15.1 °F 54% 30.20 in 10.0 mi SW 4.6 mph - N/A   Clear
4:53 AM 30.0 °F 25.2 °F 15.1 °F 54% 30.19 in 10.0 mi SW 4.6 mph - N/A   Clear
5:53 AM 28.0 °F 19.3 °F 16.0 °F 61% 30.22 in 10.0 mi WSW 9.2 mph - N/A   Clear
6:53 AM 24.8 °F 16.9 °F 15.8 °F 69% 30.19 in 10.0 mi WSW 6.9 mph - N/A   Clear
7:53 AM 28.9 °F 22.8 °F 17.1 °F 61% 30.23 in 10.0 mi West 5.8 mph - N/A   Clear
8:53 AM 32.0 °F 26.4 °F 17.1 °F 54% 30.26 in 10.0 mi WNW 5.8 mph - N/A   Clear
9:53 AM 34.0 °F - 17.1 °F 50% 30.25 in 10.0 mi Calm Calm - N/A   Clear
10:53 AM 36.0 °F 33.3 °F 16.0 °F 44% 30.25 in 10.0 mi SE 3.5 mph - N/A   Partly Cloudy
11:53 AM 37.9 °F 35.5 °F 15.1 °F 39% 30.25 in 10.0 mi East 3.5 mph - N/A   Partly Cloudy
12:53 PM 39.9 °F 35.8 °F 12.0 °F 32% 30.23 in 10.0 mi West 5.8 mph - N/A   Partly Cloudy
1:53 PM 39.9 °F 36.7 °F 12.0 °F 32% 30.21 in 10.0 mi Variable 4.6 mph - N/A   Partly Cloudy
2:53 PM 41.0 °F 38.0 °F 14.0 °F 33% 30.20 in 10.0 mi Variable 4.6 mph - N/A   Partly Cloudy
3:53 PM 41.0 °F 38.0 °F 12.0 °F 31% 30.21 in 10.0 mi West 4.6 mph - N/A   Partly Cloudy
4:53 PM 39.9 °F 33.9 °F 14.0 °F 35% 30.23 in 10.0 mi West 9.2 mph - N/A   Clear
5:53 PM 39.0 °F 36.8 °F 12.9 °F 34% 30.22 in 10.0 mi WNW 3.5 mph - N/A   Partly Cloudy
6:53 PM 37.9 °F - 12.0 °F 35% 30.21 in 10.0 mi Calm Calm - N/A   Partly Cloudy
7:53 PM 35.6 °F - 12.2 °F 38% 30.19 in 10.0 mi Calm Calm - N/A   Partly Cloudy
8:53 PM 32.0 °F 26.4 °F 15.1 °F 50% 30.22 in 10.0 mi NE 5.8 mph - N/A   Clear
9:53 PM 30.9 °F 22.8 °F 12.9 °F 47% 30.21 in 10.0 mi NE 9.2 mph - N/A   Clear
10:53 PM 32.0 °F 24.2 °F 12.9 °F 45% 30.22 in 10.0 mi NNE 9.2 mph - N/A   Clear
11:53 PM 28.4 °F 21.2 °F 12.2 °F 51% 30.18 in 10.0 mi NNE 6.9 mph - N/A   Clear